Weather in Nepolokovtsy

Ukraine / Chernovtci District     48°23′58″N   25°39′07″E
В апреле 2022 года жителям России запретили посещать сайт meteo.paraplan.net по решению Генеральной прокуратуры. Аудитория сайта уменьшилась в 10 раз. Владельцы сайта не видят смысла в поддержке погодного сервера в таких условиях. Сайт будет закрыт в октябре.
temp.,
°C
wind,
m/s
gust,
m/s
humid.,
%
clouds,
%
prec.,
mm/h
press.,
hPa
HPBL,
m
25 september, sun
sun2500:00+8sw117484 0.0 101911
03:00+7ssw1177100 0.0 101911
06:00+7s227884 0.0 101825
09:00+9sse2370100 0.0 1018120
12:00+14se345694 0.0 1017423
15:00+17se234671 0.0 1015843
18:00+15s2257100 0.0 101418
21:00+13s226991 0.1 101524
26 september, mon
mon2600:00+12s1170100 0.0 101415
03:00+11se1274100 0.0 101311
06:00+10se2277100 0.0 101214
09:00+12se2372100 0.0 1011108
12:00+15ne2264100 0.2 1010316
15:00+12ne1283100 0.4 101084
18:00+13ene2278100 0.0 100953
21:00+12ene1188100 1.7 100812
27 september, tue
tue2700:00+12se2290100 0.4 100745
03:00+12ese2292100 0.6 100552
06:00+11ene1196100 1.0 100345
09:00+11e2397100 2.0 1002137
12:00+12wnw2395100 0.1 1002287
15:00+12nw2490100 0.3 1001238
18:00+14w1286100 0.1 100186
21:00+11w119211 0.1 100110
28 september, wed
wed2800:00+10s119356 0.0 100210
03:00+9sw11935 0.0 100210
06:00+10wsw2290100 0.0 100330
09:00+11se0189100 0.1 100311
12:00+13nw2382100 0.0 1005434
15:00+15s22755 0.0 1004508
18:00+15ese23775 0.0 1004154
21:00+11se329012 0.0 100628
29 september, thu
thu2900:00+10se2292100 0.0 100724
03:00+10sse2290100 0.0 100721
06:00+9se2291100 0.0 100623
09:00+12se2581100 0.0 1006143
12:00+18sse4657100 0.0 1006534
15:00+21sse4650100 0.0 10051187
18:00+18sse2367100 0.0 100647
21:00+15wsw3576100 0.0 100874